Flag for Japan Weather past 2 weeks in Nagoya, Japan

Now
82 °F

Passing clouds.


Feels Like: 91 °F
Forecast: 74 / 97 °F
Wind: 10 mph from Northwest

Location: Nagoya Airport

Current Time: Jul 24, 2014 at 11:03:51 PM

Latest Report: Jul 24, 2014 at 10:30 PM


Visibility: N/A

Pressure: 29.77 "Hg

Humidity: 84%

Dew point: 77 °F

Location of NagoyaLocation

Historic Weather in Nagoya — Graph

°F

Nagoya temperature yesterday

Maximum temperature yesterday: 88 °F (at 12:30 PM)
Minimum temperature yesterday: 81 °F (at 1:00 AM)
Average temperature yesterday: 84 °F

Past Weeks' High & Low Weather Summary

 TemperatureHumidityPressure
High91 °F (Jul 17, 1:30 PM)100% (Jul 9, 11:00 PM)29.92 "Hg (Jul 9, 11:00 PM)
Low72 °F (Jul 12, 4:00 AM)55% (Jul 12, 1:00 PM)29.21 "Hg (Jul 10, 6:30 PM)
Average80 °F84%29.74 "Hg
* Reported Jul 9 9:00 PM — Jul 24 9:30 PM, Nagoya, Weather by CustomWeather, © 2014

Note: Actual official high and low records may vary slightly from our data, if they occured in-between our weather recording intervals... More about our weather records

Advertising

Nagoya weather history for previous 24 hours

 ConditionsComfort  
Time TempWeatherWind HumidityBarometerVisibility
9:30 PM
Jul 24
82 °FPartly cloudy.14 mph84%29.77 "HgN/A
9:00 PM82 °FPassing clouds.15 mph84%29.74 "HgN/A
8:30 PM84 °FPartly cloudy.17 mph74%29.74 "HgN/A
8:00 PM84 °FPassing clouds.16 mph79%29.74 "HgN/A
7:30 PM84 °FPassing clouds.15 mph79%29.71 "HgN/A
7:00 PM84 °FBroken clouds.16 mph84%29.71 "HgN/A
6:30 PM86 °FBroken clouds.13 mph75%29.71 "HgN/A
6:00 PM88 °FBroken clouds.16 mph66%29.71 "HgN/A
5:30 PM88 °FPartly sunny.14 mph70%29.68 "HgN/A
5:00 PM90 °FPartly sunny.12 mph67%29.68 "HgN/A
4:30 PM88 °FPartly sunny.12 mph75%29.68 "HgN/A
4:00 PM88 °FPartly sunny.10 mph75%29.68 "HgN/A
3:30 PM90 °FPartly sunny.10 mph71%29.68 "HgN/A
2:30 PM90 °FBroken clouds.8 mph67%29.68 "HgN/A
2:00 PM90 °FPartly sunny.3 mph71%29.68 "HgN/A
1:30 PM88 °FPartly sunny.3 mph70%29.68 "HgN/A
1:00 PM88 °FPartly sunny.1 mph66%29.68 "HgN/A
12:30 PM88 °FBroken clouds.3 mph70%29.68 "HgN/A
12:00 PM88 °FPartly sunny.2 mph70%29.68 "HgN/A
11:30 AM88 °FPartly sunny.5 mph70%29.68 "HgN/A
11:00 AM88 °FMostly cloudy.5 mph70%29.68 "HgN/A
10:30 AM88 °FOvercast.7 mph70%29.68 "HgN/A
10:00 AM88 °FPartly sunny.7 mph75%29.68 "HgN/A
9:30 AM86 °FBroken clouds.9 mph79%29.68 "HgN/A
9:00 AM86 °FBroken clouds.10 mph79%29.68 "HgN/A
8:30 AM86 °FPartly sunny.12 mph79%29.68 "HgN/A
8:00 AM84 °FPartly sunny.13 mph79%29.68 "HgN/A
7:30 AM84 °FPartly sunny.14 mph79%29.68 "HgN/A
7:00 AM82 °FPartly sunny.10 mph84%29.68 "HgN/A
6:30 AM82 °FBroken clouds.10 mph84%29.68 "HgN/A
6:00 AM81 °FBroken clouds.7 mph89%29.68 "HgN/A
5:30 AM81 °FBroken clouds.5 mph89%29.65 "HgN/A
5:00 AM82 °FPartly sunny.5 mph79%29.68 "HgN/A
4:30 AM82 °FScattered showers. Partly cloudy.8 mph74%29.65 "HgN/A
4:00 AM82 °FScattered showers. Partly cloudy.9 mph79%29.68 "HgN/A
3:30 AM82 °FPartly cloudy.9 mph79%29.65 "HgN/A
3:00 AM82 °FScattered showers. Partly cloudy.8 mph79%29.65 "HgN/A
2:30 AM82 °FPassing clouds.6 mph79%29.65 "HgN/A
2:00 AM82 °FPassing clouds.6 mph79%29.65 "HgN/A
1:30 AM82 °FPassing clouds.7 mph84%29.65 "HgN/A
1:00 AM82 °FPassing clouds.7 mph79%29.65 "HgN/A
12:30 AM82 °FPartly cloudy.7 mph84%29.68 "HgN/A
12:00 AM82 °FPartly cloudy.8 mph84%29.68 "HgN/A
11:30 PM
Jul 23
82 °FPartly cloudy.9 mph84%29.68 "HgN/A
11:00 PM84 °FPartly cloudy.12 mph79%29.68 "HgN/A
Weather by CustomWeather, © 2014

See weather overviewHow to use our weather pages